Flag for United Kingdom Weather past 2 weeks in Newport (Isle of Wight), England, United Kingdom

Now
51 °F

Cool.


Feels Like: 47 °F
Forecast: 42 / 53 °F
Wind: 12 mph from Northeast

Location: Solent M. R. S. C.


UV Index: 0 (Low)

Visibility: N/A


Pressure: 30.07 "Hg

Humidity: 54%

Dew point: 35 °F

Location of Newport (Isle of Wight)Location

Historic Weather in Newport (Isle of Wight)

°F

Newport (Isle of Wight) temperature yesterday

Maximum temperature yesterday: 60 °F (at 3:00 PM)
Minimum temperature yesterday: 43 °F (at 7:00 AM)
Average temperature yesterday: 52 °F

Past Weeks' High & Low Weather Summary

 TemperatureHumidityPressure
High64 °F (Apr 14, 4:00 PM)99% (Apr 5, 6:00 PM)30.43 "Hg (Apr 5, 6:00 PM)
Low38 °F (Apr 19, 6:00 AM)36% (Apr 18, 5:00 PM)29.68 "Hg (Apr 7, 6:00 PM)
Average51 °F77%30.13 "Hg
* Reported Apr 4 10:00 AM — Apr 19 10:00 AM, Newport (Isle of Wight), Weather by CustomWeather, © 2014

Note: Actual official high and low records may vary slightly from our data, if they occured in-between our weather recording intervals... More about our weather records

Advertising

Historic Weather Conditions — Data for Previous 24 hours

 ConditionsComfort  
Time TempWeatherWind HumidityBarometerVisibility
10:00 AM
Apr 19
50 °FCool.13 mph57%30.08 "HgN/A
9:00 AM46 °FCool.14 mph65%30.08 "HgN/A
8:00 AM42 °FQuite cool.13 mph74%30.09 "HgN/A
7:00 AM38 °FChilly.9 mph84%30.09 "HgN/A
6:00 AM38 °FChilly.7 mph83%30.09 "HgN/A
5:00 AM40 °FChilly.8 mph81%30.09 "HgN/A
4:00 AM40 °FQuite cool.7 mph80%30.10 "HgN/A
3:00 AM42 °FQuite cool.5 mph75%30.10 "HgN/A
2:00 AM44 °FQuite cool.5 mph73%30.12 "HgN/A
1:00 AM46 °FCool.12 mph70%30.12 "HgN/A
12:00 AM48 °FCool.12 mph65%30.13 "HgN/A
11:00 PM
Apr 18
48 °FCool.10 mph63%30.14 "HgN/A
10:00 PM48 °FCool.7 mph59%30.14 "HgN/A
9:00 PM51 °FCool.6 mph52%30.14 "HgN/A
8:00 PM54 °FCool.9 mph45%30.13 "HgN/A
7:00 PM56 °FRefreshingly cool.13 mph42%30.12 "HgN/A
6:00 PM58 °FRefreshingly cool.12 mph36%30.11 "HgN/A
5:00 PM59 °FRefreshingly cool.10 mph36%30.12 "HgN/A
4:00 PM60 °FRefreshingly cool.10 mph37%30.13 "HgN/A
3:00 PM60 °FRefreshingly cool.14 mph38%30.14 "HgN/A
2:00 PM59 °FRefreshingly cool.16 mph42%30.14 "HgN/A
1:00 PM59 °FRefreshingly cool.15 mph43%30.14 "HgN/A
12:00 PM58 °FRefreshingly cool.12 mph49%30.15 "HgN/A
Weather by CustomWeather, © 2014

See weather overview